Location: Unspecified
(35.7456°N, 0.0000°E)
Time: 06:28:17
(UTC+00:00)

NOAA 16 DEB - Visible Passes

Search period start: 04 April 2026 00:00
Search period end: 14 April 2026 00:00
Orbit: 728 x 748 km, 99.0° (Epoch: 25 March)

Date Brightness Start Highest point End Pass type
(mag) Time Alt. Az. Time Alt. Az. Time Alt. Az.
4 Apr ? 04:19:40 10° SSE 04:24:29 65° ENE 04:29:20 10° N visible
5 Apr ? 03:36:13 10° ESE 03:39:58 23° ENE 03:43:44 10° NNE visible
5 Apr ? 05:13:42 10° SSW 05:18:07 34° W 05:22:33 10° NNW visible
5 Apr ? 19:02:28 10° NW 19:03:18 10° WNW 19:04:08 10° WNW visible
6 Apr ? 04:28:22 10° SSE 04:33:14 79° ENE 04:38:08 10° N visible
7 Apr ? 03:44:35 10° SE 03:48:39 27° ENE 03:52:44 10° NNE visible
8 Apr ? 04:37:04 10° SSE 04:41:57 85° WSW 04:46:52 10° NNW visible
9 Apr ? 03:52:58 10° SE 03:57:17 33° ENE 04:01:37 10° N visible
10 Apr ? 03:11:11 10° E 03:12:54 12° ENE 03:14:38 10° NE visible
10 Apr ? 04:45:47 10° S 04:50:38 70° WSW 04:55:31 10° NNW visible
11 Apr ? 04:01:23 10° SE 04:05:53 39° ENE 04:10:25 10° N visible
12 Apr ? 03:18:53 10° E 03:21:26 14° ENE 03:24:00 10° NNE visible
12 Apr ? 04:54:29 10° S 04:59:16 57° WSW 05:04:05 10° NNW visible
13 Apr ? 04:09:47 10° SE 04:14:27 47° ENE 04:19:09 10° N visible
